Regional Weather Roundup
Issued by NWS

Home | Current Version | Previous Version | Text Only | Print | Product List | Glossary On
Versions: 1 2 3 4 5 6 7 8 9 10 11 12 13 14 15 16 17 18 19 20 21 22 23 24 25 26 27 28 29 30 31 32 33 34 35 36 37 38 39 40 41 42 43 44 45 46 47 48 49 50
000
ASUS44 KOUN 260710
RWROK

WEATHER ROUNDUP FOR OKLAHOMA
NATIONAL WEATHER SERVICE NORMAN OK
200 AM CDT MON JUN 26 2017

NOTE: "FAIR" INDICATES FEW OR NO CLOUDS BELOW 12,000 FEET WITH NO
      SIGNIFICANT WEATHER AND/OR OBSTRUCTIONS TO VISIBILITY.

OKZ001>007-009>012-014-015-017-260800-
NORTHWEST OKLAHOMA AND THE PANHANDLE

CITY           SKY/WX    TMP DP  RH WIND       PRES   REMARKS
GAGE           CLOUDY    65  56  72 CALM      30.22S
GUYMON         CLOUDY    62  62 100 NE7       30.25S
ENID/WOODRING  CLOUDY    66  61  82 E8        30.20S
$$

OKZ016-021>023-033>039-044-045-260800-
SOUTHWEST OKLAHOMA

CITY           SKY/WX    TMP DP  RH WIND       PRES   REMARKS
LAWTON/REGL    CLOUDY    71  63  75 E6        30.18S
LAWTON/FT SILL CLOUDY    71  63  75 SE6       30.17S
FREDERICK      CLOUDY    73  64  73 SE10      30.14F
CLINTON        CLOUDY    73  54  51 S6        30.22R
HOBART         CLOUDY    74  58  57 S12       30.19F
ALTUS AFB      CLOUDY    71  63  74 S7        30.17F
$$

OKZ018>020-024>031-260800-
CENTRAL OKLAHOMA

CITY           SKY/WX    TMP DP  RH WIND       PRES   REMARKS
OKLAHOMA CITY  CLOUDY    69  56  62 SE6       30.19F
OKC/WILEY POST CLOUDY    74  56  53 SE8       30.19S
OKC/TINKER AFB PTCLDY    69  56  62 SE6       30.20S
STILLWATER     MOCLDY    68  60  75 E10       30.20S
GUTHRIE        MOCLDY    72  54  53 SE7       30.19S
$$

OKZ008-013-054>072-260800-
NORTHEAST OKLAHOMA

CITY           SKY/WX    TMP DP  RH WIND       PRES   REMARKS
TULSA          CLOUDY    71  61  70 N7        30.18F
TULSA/JONES    CLOUDY    73  59  61 NE3       30.19S
PONCA CITY     CLOUDY    69  55  60 E10       30.21S
BARTLESVILLE   CLOUDY    65  57  75 E3        30.23S
MUSKOGEE       CLOUDY    71  65  81 SE3       30.19F
$$

OKZ032-040>043-046>053-073>077-260800-
SOUTH CENTRAL/SOUTHEAST OKLAHOMA

CITY           SKY/WX    TMP DP  RH WIND       PRES   REMARKS
ARDMORE/DWNTWN MOCLDY    68  59  73 CALM      30.19R
MCALESTER      PTCLDY    72  63  73 SE3       30.19F
$$





USA.gov is the U.S. government's official web portal to all federal, state and local government web resources and services.